Погода в Караганде

Погода в Караганде : погода сейчас, прогноз погоды и архив. Всё, что Вы хотите узнать о погоде в Караганде!

Поиск расширенной информации на нашем сайте:

Другие новости

Новости СМИ2

Главная страница сайта

Новости сайта

03.07.2017

Напоминаем, что на нашем специализированном сайте Метеоцентр.Азия вы можете получить высокодетализированные автоматические прогнозы погоды по пунктам России, СНГ и мира в авиационном формате (включающие направление и скорость ветра, видимость, явления погоды, количество и форму облачности, нижнюю и верхнюю границу облачности).


Погода в Караганде - сегодня

Время (UTC), дата Ветер
(°,м/с) 
Видим.   Явления Облачность Т
(°С)
Тd
(°С)
f(%) Тe
(°С)
Pmin
(гПа)
dP
(гПа)
Po
(мм)
O2
(г/м3)
Тmin Tmax R s Состояние
почвы
06 16.06.18 230 (ЮЗ) 20000 м    8/4 1000 м средняя 
[Cu hum|Ac trans]
+24.2 +8.3 36 +24  1009  -0.8  711  262  +13.9         
09 16.06.18 260 (З) 20000 м  в посл. час гроза{ливн. осадки}  8/6 600 м кучево-дожд., средняя 
[Cb cap|Ac trans]
+25.6 +11.7 42 +30  1007.2  -1.4  710  259           
12 16.06.18 160 (Ю) 20000 м  {гроза, ливн. осадки}  8/6 600 м кучево-дожд., средняя 
[Cb cap|Ac trans]
+25.3 +8.5 34 +26  1006.3  -1  709  260           
15 16.06.18 200 (Ю) 20000 м    8/0 средняя 
[Ac trans]
+25.2 +4.9 27 +25  1005.1  -1.1  708  260    +27     
18 16.06.18 тихо ()   20000 м    ясно 
+18.6 +6.7 46 +19  1006.8  0.3  708  266    +27     
21 16.06.18 010 (С) 20000 м    6/0 средняя 
[Ac trans]
+13.6 +6.8 63 +14  1006.8  -1.1  708  270           
00 17.06.18 170 (Ю) 20000 м    1/0 средняя 
[Ac trans]
+13.1 +5.2 59 +14  1005.6  -1.2  707  271           
03 17.06.18 180 (Ю) 20000 м    3/0 средняя 
[Ac trans]
+21.8 +4.6 32 +22  1002.9  -0.8  706  263           
06 17.06.18 210 (ЮЗ) 20000 м    8/0 средняя 
[Ac trans]
+26.6 +5.7 26 +27  1001.2  -0.7  706  258  +12.3         
09 17.06.18 210 (ЮЗ) 20000 м    8/4 1000 м верхняя 
[Cu hum|Ci fib]
+29.2 +2.6 18 +29  999.3  -1.3  705  256           
12 17.06.18 350 (С) 20000 м    6/3 1000 м верхняя 
[Cu hum|Ci fib]
+26.3 +9.3 34 +28  999.8  705  257           
15 17.06.18 330 (СЗ) 20000 м    9/9 600 м кучево-дожд. 
[Cb cap]
+21 +8.9 46 +22  1001  0.1  705  262    +29.6       
18 17.06.18 030 (СВ) 10 км  слаб. ливневой дождь  10/10 600 м кучево-дожд. 
[Cb cap]
+18.2 +8.6 53 +20  1002  0.4  705  265    +29.6       
21 17.06.18 060 (СВ) 20000 м  в посл. час гроза{ливн. осадки}  8/8 600 м кучево-дожд. 
[Cb cap]
+14.5 +11.4 82 +18  1002  -0.7  704  267           
00 18.06.18 090 (В) 20000 м  в посл. час ливневой дождь{гроза}  10/10 600 м кучево-дожд. 
[Cb cap]
+14.5 +12.2 86 +21  1001.7  -0.3  704  267           
03 18.06.18 130 (ЮВ) 20000 м  в посл. час ливневой дождь  9/9 600 м кучево-дожд. 
[Cb cap]
+15.1 +11.7 80 +19  1001.4  -0.1  704  267           
06 18.06.18 110 (В) 20000 м  {ливн. осадки}  3/3 1000 м верхняя 
[Cu hum|Ci sp]
+21.5 +11.6 53 +26  998.6  -1.4  703  260  +14       
09 18.06.18 230 (ЮЗ) 10 км  гроза, ливневой дождь  10/10 600 м кучево-дожд. 
[Cb cap]
+19.7 +8.8 49 +21  1001.3  2.1  705  263           
12 18.06.18 120 (ЮВ) 10 км  гроза, ливневой дождь  8/8 600 м кучево-дожд. 
[Cb cap]
+19.3 +8.7 50 +21  997.7  -3.4  702  263           
15 18.06.18 090 (В) 20000 м  {гроза, ливн. осадки}  8/8 600 м кучево-дожд., средняя 
[Cb cap|Ac lent]
+19 +10.6 58 +22  993.9  -3.6  699  261    +23.7       
18 18.06.18 330 (СЗ) 20000 м  зарница{гроза, ливн. осадки}  8/3 600 м кучево-дожд., верхняя 
[Cb cap|Ci fib]
+16.2 +10.3 68 +20  994.3  -0.2  699  264    +23.7  0.6     
21 18.06.18 240 (ЮЗ) 20000 м  гроза, ливневой дождь  9/8 600 м кучево-дожд., верхняя 
[Cb cap|Ci fib]
+12.4 +9.7 84 +14  997.4  2.1  701  268           
00 19.06.18 280 (З) 20000 м  в посл. час ливневой дождь{гроза}  8/4 600 м кучево-дожд., средняя 
[Cb cap|Ac trans]
+11.9 +9.4 85 +13  1000.5  2.8  703  270           
06 19.06.18 260 (З) 20000 м    8/8 1000 м 
[Cu med, cong]
+17.4 +8.5 56 +18  1003.7  2.2  706  266  +11.3       
09 19.06.18 230 (ЮЗ) 20000 м    6/6 1000 м 
[Cu med, cong]
+20.8 +7.9 43 +21  1003.3  0.3  706  263           
Время (UTC), дата Ветер
(°,м/с) 
Видим.   Явления Облачность Т
(°С)
Тd
(°С)
f(%) Тe
(°С)
Pmin
(гПа)
dP
(гПа)
Po
(мм)
O2
(г/м3)
Тmin Tmax R s Состояние
почвы

Для получения пояснительной информации подведите курсор к названию столбца.

ПОГОДА в Караганде - архив

Всё, что Вы хотите узнать о погоде в Караганде - удобно и подробно!

Выберите нужную дату (начиная с 1 января 2015* года) и нажмите кнопку "Найти".
Будут отображены архивные сводки погоды по пункту Караганда, начиная с указанной даты.


Отображать данные в формате CSV (для использования в таблицах Excel)


Внимание! Наш архив погоды предназначен исключительно для личного некоммерческого использования в познавательных целях. Если Вам необходимы официальные справки о состоянии погоды (для производственных, юридических, коммерческих и т.п. целей), обращайтесь в органы Росгидромета.

*Примечание: данная дата относится к архиву по метеостанциям СССР (Россия, СНГ, Балтия).
Архив по метеостанциям Зарубежной Европы и Азии (кроме Китая) хранится 10 дней, по другим регионам земного шара (Китай, Африка, Америка, Австралия, Океания) - 1 день.

Караганда - район местоположения метеостанции


Название, широта, долгота, высота метеостанции:
Караганда (город) 49.8°ш. 73.2°д. 553 м над ур. моря [Казахстан]

Дополнительная информация

В oтличие oт бoльшинства пoгoдных сайтoв мы публикуем пoдрoбную метеoинфoрмацию в детальнoм прoфессиoнальнoм фoрмате.

Характеристики температуры и влажнoсти вoздуха измеряются на высoте 2 м в тени вдали oт зданий и деревьев.
Скoрoсть ветра измеряется на высoте 10 м (на урoвне рoста челoвека скoрoсть ветра ниже в 1.5-2 раза). Если метеoстанция нахoдится в гoрoде или в лесу, тo скoрoсть ветра занижена на 2-4 м/с пo сравнению с oткрытым местoм. Скoрoсть ветра над акватoриями крупных рек и oзёр, а также на вершинах хoлмoв на 2-5 м/с выше, чем в oбычных услoвиях.
Атмoсфернoе давление в разных тoчках местнoсти мoжет значительнo oтличаться oт давления на метеoстанции, в зависимoсти oт услoвий рельефа (при пoдъёме на 10 м давление пoнижается примернo на 1 мм рт.ст.).